Regional Weather Roundup
Issued by NWS Goodland, KS

Home | Current Version | Previous Version | Text Only | Print | Product List | Glossary On
Versions: 1 2 3 4 5 6 7 8 9 10 11 12 13 14 15 16 17 18 19 20 21 22 23 24 25 26 27 28 29 30 31 32 33 34 35 36 37 38 39 40 41 42 43 44 45 46 47 48 49 50
000
ASUS43 KGLD 290108
RWRGLD

GOODLAND FORECAST AREA HOURLY WEATHER ROUNDUP
NATIONAL WEATHER SERVICE GOODLAND KS
600 PM MST SUN DEC 28 2014

...OFFICIAL OBSERVATIONS...

CITY           SKY/WX    TMP DP  RH WIND       PRES   REMARKS
GOODLAND KS    CLEAR     18  15  88 CALM      29.95R
HILL CITY KS   CLOUDY    31  24  75 E6        30.03R
IMPERIAL NEB   PTCLDY    14   9  80 SE6       29.98R
MCCOOK NEB     PTCLDY    21  15  78 CALM      30.03R
AKRON CO       CLOUDY    18   9  68 E5        29.90R
BURLINGTON CO  PTCLDY    21  18  88 SE8       29.92R
LIMON CO       MOCLDY    20  16  84 N10       29.89R WCI   9
$$

...UNOFFICIAL OBSERVATIONS...

CITY           SKY/WX    TMP DP  RH WIND       PRES   REMARKS
COLBY KS       CLEAR     21  21 100 E6        29.98S
NORTON KS      CLOUDY    28  19  69 E5        30.02R
SHARON SPRINGS   N/A     25  22  86 CALM        N/A
KIT CARSON CO    N/A     27  19  72 MISG        N/A
YUMA CO          N/A     14   8  76 CALM        N/A
$$


USA.gov is the U.S. government's official web portal to all federal, state and local government web resources and services.